Theta_e
315 316 317 316 315 315 314 314 314 314 314 315 317 318 319 319 319 304 296 304 311 320 320 310 304 300 301 298 298 298 290 286 287 288 287 289 289 291 292 291 291 293 292 294 296
315 316 317 317 316 315 315 314 314 314 314 315 316 317 318 319 305 299 307 316 318 318 306 297 297 299 296 295 295 294 289 286 287 288 287 289 290 291 289 288 289 291 294 296 295
316 316 317 317 317 316 315 315 314 314 314 314 316 317 318 316 297 297 314 316 317 316 307 301 298 298 294 292 291 289 288 288 289 290 291 290 288 289 288 286 289 290 291 293 293
317 317 317 317 318 317 317 316 315 314 314 314 315 317 319 306 287 300 319 319 318 310 303 297 297 294 291 289 291 288 290 290 292 292 291 290 291 288 288 288 292 292 293 292 292
319 318 318 318 318 318 318 317 316 316 314 314 315 318 309 295 295 304 315 310 305 302 298 297 294 293 289 289 290 288 288 290 290 291 290 292 288 289 288 290 293 293 294 292 292
320 319 319 318 318 318 318 318 317 316 314 314 315 318 299 289 303 305 304 303 302 300 296 296 294 294 291 289 288 288 289 288 290 289 290 289 287 289 289 290 291 292 291 291 292
318 320 319 319 319 319 318 318 318 316 315 314 316 311 297 293 302 303 304 301 301 300 296 297 297 295 292 289 291 289 285 286 286 288 287 289 286 287 289 290 290 290 290 291 292
315 316 319 319 319 319 318 318 318 316 315 314 316 302 292 303 301 302 304 301 302 301 301 299 299 296 293 292 290 286 284 279 285 288 288 286 280 286 289 289 288 288 287 290 292
314 315 318 320 319 319 318 318 316 315 313 314 302 295 291 306 298 301 301 299 300 299 300 301 297 292 291 286 283 283 277 279 283 288 287 284 280 287 289 288 287 286 287 289 290
312 313 317 320 319 318 318 314 313 312 309 308 302 291 295 294 298 300 300 301 298 298 296 296 291 287 286 282 278 279 280 281 281 286 286 284 283 285 288 288 287 286 286 288 290
310 311 314 319 319 318 310 300 296 298 297 294 295 294 295 298 300 298 300 298 297 294 287 291 286 281 284 284 284 285 280 280 283 286 285 284 285 285 288 286 285 285 285 287 289
310 309 312 318 317 316 304 297 296 297 289 298 298 297 299 299 292 296 301 292 291 286 288 285 282 287 289 287 285 284 281 280 286 286 284 283 284 287 287 288 289 287 285 287 289
309 309 312 317 315 305 300 299 303 300 291 295 297 297 297 298 292 292 296 293 288 287 286 281 285 290 288 286 285 284 280 281 283 285 284 282 281 284 286 288 289 289 288 289 290
308 308 311 313 306 299 298 304 303 301 285 291 292 295 298 297 290 297 296 292 289 286 286 286 289 287 284 285 286 282 286 286 285 281 276 281 273 282 285 286 287 287 286 288 288
307 308 309 311 297 295 300 303 302 301 276 290 291 299 297 292 292 293 296 292 286 286 285 282 285 284 284 285 288 284 289 287 284 280 278 278 274 279 285 285 286 287 287 288 290
306 307 309 307 299 297 301 300 301 285 276 284 291 290 288 291 291 293 292 294 292 288 287 285 289 288 286 288 288 289 287 286 282 280 272 279 277 275 280 286 287 287 287 290 291
305 306 308 306 301 301 301 298 284 278 286 282 285 289 288 286 288 289 287 284 281 278 278 283 285 287 289 285 288 287 282 278 273 271 276 278 275 281 284 287 288 287 287 289 291
304 306 304 304 303 303 301 290 279 278 283 289 288 288 286 286 285 287 284 280 284 285 278 278 277 284 288 285 283 284 282 279 269 270 274 278 275 281 285 287 288 289 289 289 289
302 297 300 301 303 303 296 284 280 283 290 286 286 282 281 285 284 283 283 283 285 287 282 278 279 286 288 287 286 283 280 285 279 271 273 277 279 284 284 286 286 286 287 288 289
293 295 297 300 303 301 288 287 284 292 291 288 284 283 275 281 281 280 282 286 286 288 288 285 279 283 286 286 286 284 285 278 277 268 267 275 277 280 281 283 284 285 286 288 289
295 288 294 302 301 291 285 281 286 293 292 289 286 284 284 282 281 276 281 286 288 286 288 288 285 280 285 282 281 281 280 280 281 278 274 272 277 281 281 284 284 284 287 287 289
292 281 295 300 287 285 285 285 291 290 290 290 290 290 288 286 283 282 284 285 289 289 285 289 284 276 279 283 285 283 283 282 277 277 277 277 277 285 284 285 286 285 287 288 290
286 286 296 297 283 283 285 285 288 286 287 288 289 291 288 287 284 285 287 290 291 289 287 289 283 275 278 279 281 281 283 283 283 281 278 276 279 285 286 285 287 285 286 288 290
286 281 286 290 288 285 284 284 286 291 288 289 289 290 288 286 289 288 288 288 290 291 294 293 286 281 277 279 280 279 281 283 283 279 279 280 283 288 287 285 285 286 287 287 289
285 281 284 278 283 285 285 283 283 283 289 291 286 288 287 283 284 285 289 287 289 292 291 289 281 283 283 283 283 281 281 281 281 283 279 283 284 288 290 290 287 287 287 287 287
276 280 284 283 285 284 285 275 283 284 285 285 280 285 288 285 284 282 287 286 284 288 287 286 282 279 276 282 282 282 284 283 283 283 283 284 283 291 292 292 286 287 286 286 287
287 289 281 277 282 279 280 282 282 286 284 287 286 285 282 285 290 289 292 289 291 285 284 283 282 276 273 278 278 273 278 283 283 283 285 280 286 292 290 290 289 288 287 287 289
Wind_Speed
6 7 8 9 9 9 9 9 10 10 11 12 12 12 12 13 8 3 3 3 6 12 7 5 3 1 2 3 5 3 6 3 5 7 4 3 5 1 2 6 4 2 4 5 4
3 5 7 8 9 9 10 10 10 10 10 12 12 12 12 11 3 6 2 8 9 7 3 3 2 2 4 3 4 6 4 3 2 3 6 5 3 6 4 3 3 4 4 7 6
4 5 7 8 9 9 10 10 10 10 11 11 12 11 11 6 3 2 6 9 7 4 2 2 1 1 5 4 5 3 4 4 4 2 5 7 3 1 8 3 6 8 6 4 5
5 6 8 8 9 10 10 10 10 10 11 11 12 11 12 2 3 2 9 9 6 3 3 2 2 4 4 4 3 7 5 1 2 2 5 9 7 4 5 3 5 10 6 5 7
6 6 8 9 9 10 11 12 11 10 11 11 11 10 2 3 2 4 10 8 3 2 1 1 3 5 6 5 3 5 3 3 4 5 6 7 4 6 6 5 7 9 8 7 7
7 7 8 9 10 11 12 13 13 12 12 11 9 9 1 3 4 6 6 4 4 3 2 3 4 4 7 4 4 3 5 3 4 2 3 3 2 3 6 6 8 8 8 7 8
9 7 8 9 11 12 13 15 15 13 11 8 6 2 5 1 4 7 6 2 3 1 2 3 2 6 5 6 6 7 5 3 1 2 2 3 5 9 7 9 10 8 8 7 6
12 11 8 8 10 13 15 17 16 12 8 3 2 1 3 2 3 4 6 3 4 4 4 2 7 9 5 5 5 4 5 2 3 5 1 6 9 2 8 10 9 9 7 8 5
15 13 10 6 9 12 15 18 14 3 1 2 1 1 2 3 3 4 4 2 4 3 3 1 6 5 3 6 4 5 3 4 2 9 3 4 7 1 7 8 9 8 8 8 7
15 16 13 6 7 11 16 15 3 2 0 1 1 3 1 1 2 3 3 3 2 3 4 5 6 5 3 2 6 7 4 4 4 7 5 4 12 4 8 8 10 9 8 8 7
17 17 17 9 7 11 8 4 4 3 7 2 1 3 2 1 0 5 3 3 2 4 3 1 3 8 11 6 3 6 2 2 3 4 5 8 11 8 10 7 9 8 8 8 7
17 18 19 10 9 11 2 4 1 2 1 4 4 3 2 0 2 4 6 3 2 3 5 6 4 1 7 6 2 2 1 4 1 2 3 2 12 10 13 15 17 14 10 11 7
17 18 19 9 9 3 4 2 3 2 3 2 2 4 1 2 1 1 2 1 2 4 4 6 1 4 2 4 6 3 4 3 2 2 3 4 10 6 5 11 11 10 12 11 14
18 17 18 12 4 2 2 2 0 2 5 2 1 2 1 1 3 2 2 3 4 5 6 2 2 2 1 2 3 4 2 3 4 2 5 2 9 5 4 6 11 13 14 15 11
17 18 17 8 3 2 3 2 1 3 3 1 1 1 2 3 3 5 2 2 6 4 5 4 1 1 2 2 2 3 2 3 3 3 3 3 2 9 1 6 12 16 16 17 15
17 19 17 3 1 2 2 2 3 8 8 1 1 4 3 1 1 2 2 5 2 5 6 2 0 2 2 3 3 4 3 4 4 3 3 10 8 5 7 10 2 11 15 18 15
17 17 6 2 1 5 3 3 6 5 3 3 3 4 4 3 1 2 4 3 5 6 1 3 2 2 2 4 5 2 3 4 6 3 8 3 2 11 9 8 5 16 17 16 14
19 12 4 1 4 4 1 5 5 4 4 3 3 3 5 5 1 2 2 1 4 2 3 7 4 2 1 1 3 4 2 7 8 4 5 1 8 9 3 5 4 11 15 14 13
15 2 3 3 3 2 3 3 9 8 8 9 3 4 1 2 4 3 4 3 6 9 6 5 1 2 4 2 1 3 4 1 3 1 2 7 8 11 3 5 4 11 14 17 15
2 2 1 5 4 1 4 9 5 4 4 4 7 2 6 4 4 3 5 4 3 6 1 5 4 2 2 0 2 2 0 4 3 2 7 6 5 10 6 5 4 8 13 14 12
1 1 2 3 2 4 5 6 5 4 3 6 5 5 4 6 7 4 4 2 2 2 3 3 4 0 2 6 7 2 2 1 2 4 4 5 7 7 3 8 13 11 12 14 14
2 1 3 3 3 2 7 7 4 3 1 2 3 3 5 6 5 5 6 4 3 3 7 3 5 4 8 2 4 2 4 5 5 5 5 3 9 3 3 5 9 13 13 13 14
2 2 2 2 6 4 1 2 1 2 3 4 2 2 2 6 3 5 3 4 6 1 6 5 1 2 5 3 3 4 4 3 1 1 6 3 7 2 4 3 5 9 8 10 12
2 2 2 1 0 3 6 5 10 4 2 3 4 4 4 2 1 5 3 4 7 2 2 7 3 6 8 5 5 5 5 5 9 3 8 18 26 21 10 4 3 6 11 13 13
1 1 2 4 4 1 0 3 12 4 1 4 1 5 7 4 2 5 4 4 2 4 4 3 4 4 6 4 5 5 6 9 12 17 11 12 23 28 17 15 11 14 13 15 16
2 1 3 1 0 7 9 4 4 9 6 5 6 7 5 7 7 7 7 4 5 3 4 0 2 3 4 6 9 14 15 15 18 18 22 22 32 16 23 16 6 13 16 19 18
1 0 3 3 1 3 4 8 5 4 3 5 5 6 6 6 3 0 6 5 6 8 8 6 4 3 5 3 2 10 18 21 10 8 21 19 30 20 19 15 12 13 17 21 22
Wind_Direction
14 10 12 13 9 5 2 2 0 358 353 345 348 347 347 348 329 51 42 275 300 313 319 283 286 276 64 71 49 92 62 132 181 162 196 203 130 61 61 95 62 46 132 132 95
2 357 358 1 1 358 356 355 356 351 350 342 344 341 342 346 60 59 243 304 302 307 295 44 57 15 46 46 20 72 89 183 220 192 170 173 134 141 105 101 58 61 67 81 61
331 338 336 342 348 349 351 349 348 345 342 340 338 336 335 313 102 332 306 315 307 298 257 291 238 77 62 40 9 44 145 178 354 215 130 133 116 153 118 241 195 183 157 105 69
313 321 323 327 331 334 338 337 338 338 336 338 332 332 326 256 177 264 329 318 310 295 270 217 112 75 79 84 38 87 22 77 341 104 101 152 134 115 182 218 156 147 141 109 79
307 313 313 315 320 323 325 325 325 328 328 332 328 329 2 66 159 304 333 319 309 308 275 156 119 111 125 109 84 90 151 59 54 72 111 124 137 173 172 172 128 125 112 119 109
309 315 310 309 315 317 318 319 317 321 319 321 326 324 15 133 323 318 341 335 5 10 350 31 158 116 100 76 87 108 97 97 55 48 57 108 212 150 215 176 146 136 141 130 116
2 313 302 307 312 316 315 313 311 314 312 312 320 358 61 138 331 329 359 327 306 352 97 339 115 71 124 99 158 134 83 39 242 172 156 106 279 231 174 172 166 166 153 132 124
5 353 304 303 310 312 313 309 306 306 304 294 315 74 92 298 309 7 338 352 25 40 96 318 86 95 79 122 62 74 67 114 235 155 197 109 265 234 168 158 185 177 161 142 141
1 355 329 299 306 313 311 307 307 295 128 287 96 98 110 314 43 316 22 32 331 21 31 73 66 89 62 104 58 16 203 196 267 199 132 165 265 260 173 175 195 188 174 159 147
1 353 347 315 304 313 319 314 265 20 49 170 309 53 338 59 331 332 338 1 50 65 54 40 61 90 62 82 204 190 198 228 225 209 169 186 258 263 205 192 206 197 179 173 161
357 355 350 317 324 322 354 359 20 346 35 80 20 95 115 247 14 14 356 36 32 46 132 27 120 189 197 180 128 126 144 263 208 178 153 218 261 222 218 221 222 206 182 179 173
350 352 348 324 322 329 61 64 91 204 55 20 103 67 75 283 106 6 6 112 118 142 102 20 227 262 139 179 182 131 187 269 264 118 171 324 269 246 206 222 208 194 180 176 169
350 350 346 314 324 6 85 122 317 251 93 359 15 101 4 339 77 11 23 6 103 132 139 160 312 331 256 155 147 159 180 196 237 61 267 341 279 231 237 221 198 197 179 171 169
354 349 348 338 331 301 87 163 79 327 65 226 80 358 59 348 46 327 338 125 38 165 149 96 325 139 121 136 69 205 176 134 116 78 246 124 279 290 217 230 208 185 170 174 174
349 347 340 339 300 110 166 195 34 76 350 83 123 308 341 120 139 355 327 358 139 124 103 229 49 80 126 128 344 186 49 125 125 123 10 227 350 261 132 253 221 199 183 171 178
345 340 332 334 322 333 312 38 41 48 255 273 72 128 101 72 89 137 13 40 119 87 42 86 183 59 105 47 354 142 86 56 70 89 273 209 177 238 196 214 205 174 181 175 172
338 330 340 333 290 324 328 56 59 168 312 246 186 157 150 149 109 165 156 153 150 95 200 9 14 10 88 90 18 65 93 350 331 348 250 39 201 263 264 243 211 182 176 175 170
335 327 311 296 321 323 118 58 163 227 205 198 145 118 154 143 136 183 117 175 230 104 124 150 298 176 98 49 182 185 176 163 234 244 293 308 239 247 238 298 217 183 173 162 167
330 327 307 328 322 309 97 176 197 200 166 160 71 105 258 110 136 125 192 244 221 183 172 124 34 14 43 17 94 200 211 170 85 151 324 232 283 304 221 255 127 144 157 176 172
322 304 227 317 332 94 92 222 208 183 144 129 161 146 166 192 117 163 189 223 266 205 40 196 94 17 317 228 27 160 176 76 3 263 274 281 263 240 256 234 147 165 177 174 167
275 273 311 354 315 45 201 216 224 253 175 148 188 138 159 161 156 189 203 295 333 123 137 146 98 65 71 207 181 142 195 131 176 188 218 306 265 225 253 203 194 192 186 178 171
318 264 316 355 120 208 207 178 208 228 56 105 94 106 146 155 152 204 195 227 6 189 158 174 115 190 211 228 196 204 222 173 153 234 241 218 262 7 238 254 177 187 184 180 174
340 296 14 354 197 210 106 320 292 181 236 145 157 160 105 166 134 184 174 32 11 54 161 196 213 79 332 13 14 208 203 230 344 198 208 214 258 57 358 318 189 159 168 178 176
312 178 308 297 20 209 162 217 221 200 203 135 112 90 82 115 33 158 167 38 357 32 66 76 185 190 189 180 137 189 201 201 209 241 253 240 270 265 291 303 245 178 172 170 180
316 212 199 213 219 190 217 179 211 208 222 157 210 192 161 175 135 175 132 143 54 21 24 107 214 219 271 172 167 205 198 187 194 221 229 263 258 262 256 255 223 203 181 177 181
132 354 350 255 89 183 215 246 172 209 146 216 139 196 190 194 193 190 156 161 194 147 155 159 255 104 298 239 219 247 239 236 230 232 246 252 265 264 269 261 229 195 186 193 196
155 238 115 300 302 164 223 204 184 151 308 222 186 185 207 225 235 192 163 180 150 165 179 169 168 129 255 333 135 286 218 219 212 202 222 236 245 268 264 259 245 210 199 202 201